User: anonymous   Login
Location: Unspecified
(0.0000°N, 0.0000°E)
Time: 03:40:19
(UTC+00:00)
Language:

Vela 1B - Orbit

View from above orbital plane
View from above orbital plane
View from above satellite
View from above satellite

Ground track
Ground track

The orbit data is extracted from the following two-line orbital elements,

1   674U 63039A   17179.98068644 -.00000216 +00000-0 +00000-0 0  9998
2   674 026.6063 195.5958 5944869 116.4100 358.7451 00.22192326043571
Epoch (UTC): 28 June 2017 23:32:11
Eccentricity: 0.5944869
inclination: 26.6063°
perigee height: 40352 km
apogee height: 177367 km
right ascension of ascending node: 195.5958°
argument of perigee: 116.4100°
revolutions per day: 0.22192326
mean anomaly at epoch: 358.7451°
orbit number at epoch: 4357

The dashed part of the orbit path shows where the satellite is in the earth's shadow,  

DLR